Wind_Speed
5 5 6 7 8 9 10 11 11 12 12 11 11 11 11 11 11 11 11 11 11 10 9 8 8 7 7 7 7 7 6 6 6 6 6 6 6 6 6 6 5 5 5
6 6 6 7 8 10 11 12 13 13 13 12 12 11 11 11 12 12 12 11 11 10 9 8 8 7 7 7 7 6 6 6 6 6 6 6 6 6 6 5 5 5 5
7 7 7 8 9 11 12 12 14 14 14 14 13 12 12 12 12 12 12 11 11 10 9 8 8 8 7 7 6 6 6 6 6 6 6 6 6 6 6 6 6 6 6
8 8 9 9 10 11 13 13 14 15 15 15 14 13 13 12 12 12 12 11 11 9 9 8 8 7 6 6 5 5 5 6 6 6 6 6 6 6 6 7 7 7 7
9 9 10 11 12 12 13 14 15 15 15 14 14 13 13 13 12 12 11 11 10 9 8 8 8 7 6 6 5 5 5 6 6 6 6 7 7 7 7 7 8 8 8
10 10 11 12 12 13 14 15 15 15 15 14 14 14 13 13 12 11 11 10 9 9 9 8 8 7 6 6 5 5 5 6 6 7 7 7 7 8 8 8 8 8 8
10 10 11 12 12 13 14 15 15 15 15 14 14 14 13 12 12 11 10 10 9 9 9 8 8 7 6 6 5 5 5 6 6 7 7 7 8 8 8 9 9 9 9
9 10 10 11 12 13 13 14 14 15 15 15 14 14 13 12 11 11 10 10 9 9 8 8 8 7 7 6 6 5 5 6 7 7 7 7 8 9 9 9 9 9 9
9 10 10 11 12 13 13 14 14 14 14 14 14 13 12 12 11 11 10 10 9 9 8 8 8 7 7 7 6 6 6 6 7 7 8 8 8 9 10 10 10 10 10
10 10 10 11 11 12 12 13 13 13 14 13 13 12 12 12 11 11 10 10 9 9 8 8 8 7 7 8 8 7 7 7 7 8 9 9 10 10 11 11 11 11 11
13 12 12 11 12 12 12 12 13 13 13 13 12 12 12 11 11 11 10 10 10 9 9 8 8 8 9 9 9 9 9 9 9 9 10 11 11 12 12 13 13 13 13
14 14 13 12 12 12 12 12 12 12 12 12 12 12 12 12 11 11 10 10 10 9 9 9 9 10 10 11 11 12 12 12 12 12 12 13 13 14 14 14 15 15 15
17 16 14 13 12 12 12 12 12 11 11 11 12 12 13 13 12 11 11 10 10 10 10 10 10 11 12 13 14 15 15 15 16 15 15 15 16 16 16 16 17 17 17
19 19 16 15 14 13 13 13 13 12 12 12 12 13 13 13 12 11 11 11 11 11 11 11 12 13 14 15 16 18 18 19 19 18 18 18 18 18 18 19 19 19 20
20 19 18 16 14 15 14 13 13 13 13 12 13 13 13 13 13 12 12 12 11 12 12 13 14 15 16 17 19 20 21 21 22 22 22 21 21 21 21 21 22 22 22
21 19 19 17 15 15 14 14 13 13 13 13 13 14 14 13 13 13 12 12 13 13 14 15 15 17 19 20 21 22 23 24 25 25 24 24 24 25 24 23 24 25 25
22 21 20 18 17 16 16 15 15 14 14 14 15 15 15 15 14 13 13 13 13 14 15 16 17 19 21 23 24 25 26 26 26 26 26 26 26 26 26 26 27 28 28
23 23 22 21 20 19 17 17 16 15 15 15 15 15 16 16 16 15 14 15 15 16 17 18 19 21 23 24 26 26 27 28 28 27 27 27 27 27 28 28 28 29 30
24 25 25 24 23 21 20 19 18 17 17 17 17 17 17 17 16 16 16 16 17 18 18 19 21 23 24 25 26 26 28 28 28 28 28 28 28 28 29 29 29 30 31
27 27 26 27 25 24 23 23 21 20 19 19 19 19 17 17 17 17 17 18 19 19 20 21 22 23 24 26 26 27 27 27 28 28 29 29 29 30 31 32 32 33 33
30 27 27 27 25 24 24 23 23 20 20 20 19 18 17 16 16 17 18 18 18 19 19 20 22 24 25 25 26 27 27 28 28 30 31 30 31 31 32 34 35 36 37
29 27 25 24 24 23 24 24 23 22 22 21 20 19 18 17 17 18 19 20 20 20 20 21 21 22 23 24 24 24 25 26 28 29 30 31 31 31 33 35 37 39 40
29 29 26 22 24 23 23 23 23 24 23 22 21 20 20 19 19 20 20 21 21 21 21 22 22 23 24 24 25 26 27 28 29 30 31 32 33 34 35 37 39 40 42
28 27 25 23 23 23 22 23 24 25 24 24 23 22 21 20 21 22 22 22 22 23 23 23 24 26 27 27 28 29 30 30 31 32 34 35 37 37 38 40 41 43 45
29 27 25 24 23 24 23 23 24 25 25 25 24 23 23 23 23 24 24 24 24 23 24 25 27 28 29 30 31 32 33 33 34 35 37 38 39 40 41 43 44 46 48
27 27 26 25 25 25 24 23 24 25 25 25 25 24 25 25 25 25 25 26 26 25 27 27 29 30 32 33 34 35 36 37 37 38 39 41 42 43 44 45 47 49 51
Wind_Direction
262 246 237 238 237 239 243 246 249 249 249 252 258 265 274 280 283 286 288 290 290 289 289 289 287 288 288 289 290 291 293 293 293 296 297 294 292 295 298 299 302 307 310
266 254 249 252 249 250 251 249 251 252 253 254 258 264 271 277 281 285 287 288 288 289 289 287 288 289 290 292 295 298 301 302 303 301 300 298 298 302 304 305 306 309 309
264 258 256 257 256 256 256 256 254 253 256 258 259 263 268 274 279 282 285 285 286 285 283 283 286 288 290 294 297 302 306 309 311 308 306 303 305 308 309 306 303 305 305
260 258 260 260 260 259 258 258 258 257 256 258 259 262 266 271 275 278 280 281 282 280 280 282 284 287 291 295 298 304 309 312 313 313 312 309 308 309 308 304 300 300 299
268 263 260 261 261 262 261 260 260 258 257 258 259 261 264 267 271 272 273 275 275 274 277 280 283 285 289 294 300 306 312 313 314 314 314 312 310 309 306 301 297 293 293
269 265 263 262 264 263 262 260 259 258 258 257 257 259 261 262 264 265 267 270 269 270 274 277 280 282 287 291 298 306 312 315 315 314 311 308 306 305 304 301 296 290 287
269 267 266 265 265 264 262 260 258 257 257 255 254 256 257 258 258 259 262 264 264 268 271 273 275 279 284 286 292 301 309 313 313 311 309 307 307 299 301 300 295 288 284
268 265 264 265 266 264 262 259 256 254 254 252 251 250 252 252 253 255 257 259 262 265 266 267 271 277 280 284 288 296 306 312 311 311 307 307 307 298 299 299 296 288 284
264 260 259 260 264 263 261 259 254 251 250 250 247 245 246 247 249 252 255 258 260 262 262 266 271 275 279 282 287 291 296 309 311 307 307 306 305 302 300 300 299 293 287
260 258 260 259 260 260 258 256 254 250 247 246 243 242 244 247 249 252 254 256 257 261 263 267 271 275 281 284 289 292 299 308 309 306 303 303 303 302 301 299 299 295 288
258 257 259 258 256 255 254 253 251 249 245 243 241 240 243 245 248 251 253 254 258 263 268 271 274 278 283 287 292 297 302 306 306 307 302 301 300 298 297 296 296 295 291
254 252 252 252 251 249 249 248 246 245 242 240 240 241 243 244 246 249 251 256 261 265 270 275 278 281 286 290 294 296 299 302 303 302 302 300 298 295 293 293 293 292 290
252 252 245 242 244 245 244 244 243 241 238 239 241 243 242 243 244 247 251 257 261 265 273 279 281 284 286 290 293 295 296 298 299 297 296 295 295 294 292 289 290 290 288
247 246 240 238 238 241 242 240 241 240 239 240 241 242 241 242 243 246 249 256 262 267 273 277 282 286 290 293 295 295 295 294 294 292 291 292 291 290 292 289 287 286 285
249 242 240 235 232 235 239 236 237 237 237 240 239 239 238 240 243 245 251 256 263 270 275 281 285 288 291 293 295 295 295 293 291 290 288 289 288 285 286 288 285 281 281
255 252 237 237 240 238 237 236 235 234 235 238 240 239 236 239 242 244 249 257 263 270 278 284 286 287 288 290 290 291 291 290 290 288 287 288 288 284 283 287 286 282 280
252 247 244 239 239 241 239 237 237 235 236 239 240 239 238 239 240 244 252 256 262 269 275 280 283 286 288 289 289 289 290 290 290 288 287 286 286 283 283 284 283 282 280
250 246 249 240 235 236 238 236 237 239 239 239 240 241 239 241 242 245 251 256 262 268 273 277 280 286 289 288 288 288 289 291 290 287 285 284 284 282 280 281 283 281 279
254 251 247 241 234 230 231 233 233 237 237 237 238 240 242 243 245 249 255 261 267 272 277 281 284 286 288 288 287 288 289 290 288 285 284 282 282 282 282 280 281 280 279
259 253 250 244 240 236 234 232 234 234 237 239 239 241 243 245 249 254 261 265 271 276 279 283 285 285 288 289 287 288 289 288 286 283 283 283 281 281 282 280 280 279 278
262 258 251 247 244 239 233 234 236 236 238 238 240 242 243 246 252 257 263 268 274 278 280 284 286 286 287 287 287 287 288 288 285 283 281 280 281 280 279 278 278 279 279
263 265 258 247 249 243 238 238 239 237 238 243 247 246 245 250 259 260 265 270 276 280 282 285 288 286 287 287 289 288 288 288 289 285 281 281 281 281 280 279 278 279 280
264 266 264 254 247 247 246 245 247 241 241 245 250 251 253 255 262 265 267 273 275 278 281 283 285 286 288 288 286 287 287 286 286 285 283 282 282 280 280 280 279 279 278
260 265 262 259 253 251 253 253 255 249 247 249 251 256 258 262 268 273 275 278 279 281 283 284 285 286 287 289 288 287 287 287 284 283 283 283 282 282 281 281 281 280 279
256 262 263 262 260 258 259 258 259 256 256 257 256 260 263 265 271 276 277 278 280 283 284 285 287 287 287 287 287 288 288 287 285 284 284 284 284 284 284 283 281 280 280
257 260 263 264 263 265 265 267 266 265 264 265 263 262 264 267 271 275 277 277 279 282 284 285 287 288 288 288 287 287 287 286 286 285 284 283 285 284 284 284 282 281 282
Height
5902 5902 5903 5904 5904 5905 5905 5906 5906 5907 5907 5907 5907 5907 5908 5908 5908 5907 5907 5907 5907 5906 5906 5905 5904 5903 5903 5902 5902 5901 5901 5900 5900 5899 5898 5897 5896 5896 5895 5895 5894 5893 5892
5901 5901 5902 5902 5903 5904 5904 5905 5905 5905 5906 5906 5906 5906 5906 5907 5907 5906 5906 5906 5906 5905 5905 5904 5903 5903 5902 5901 5901 5900 5900 5899 5899 5898 5897 5896 5896 5895 5894 5893 5893 5892 5892
5900 5900 5901 5901 5902 5903 5903 5903 5904 5904 5904 5905 5905 5905 5905 5905 5905 5905 5905 5905 5904 5904 5903 5903 5902 5902 5901 5901 5900 5899 5899 5898 5897 5897 5896 5895 5894 5894 5893 5892 5892 5891 5891
5898 5899 5899 5900 5901 5901 5901 5902 5902 5903 5903 5903 5904 5904 5904 5904 5904 5904 5904 5903 5903 5903 5902 5902 5901 5901 5900 5900 5899 5898 5898 5897 5896 5895 5895 5894 5893 5893 5892 5891 5891 5890 5890
5896 5896 5897 5898 5899 5899 5899 5900 5900 5901 5901 5902 5902 5902 5902 5902 5902 5902 5903 5902 5902 5902 5901 5901 5900 5900 5899 5899 5898 5897 5897 5896 5895 5894 5893 5893 5892 5892 5891 5890 5890 5889 5889
5893 5894 5895 5896 5896 5897 5897 5898 5898 5899 5899 5900 5900 5900 5901 5901 5901 5901 5901 5901 5901 5901 5900 5900 5899 5899 5899 5898 5897 5897 5896 5895 5894 5893 5892 5892 5891 5891 5890 5890 5889 5888 5887
5891 5892 5893 5893 5894 5894 5895 5895 5896 5897 5897 5898 5898 5899 5899 5899 5899 5899 5900 5900 5900 5900 5899 5899 5898 5898 5897 5897 5896 5896 5895 5894 5893 5892 5892 5891 5890 5890 5889 5888 5888 5887 5886
5889 5890 5890 5891 5891 5892 5892 5893 5893 5894 5895 5895 5896 5896 5897 5897 5897 5898 5898 5898 5899 5898 5898 5898 5897 5897 5896 5896 5895 5895 5894 5893 5892 5891 5891 5890 5889 5888 5888 5887 5886 5885 5885
5887 5887 5888 5888 5889 5889 5890 5891 5891 5891 5892 5893 5893 5894 5894 5895 5895 5896 5896 5897 5897 5897 5897 5896 5896 5895 5895 5894 5894 5893 5893 5892 5891 5890 5889 5889 5888 5887 5886 5885 5885 5884 5883
5884 5885 5885 5886 5886 5887 5887 5888 5888 5889 5889 5890 5891 5892 5892 5893 5893 5894 5894 5895 5895 5895 5895 5895 5894 5894 5893 5893 5892 5892 5891 5891 5890 5889 5888 5887 5886 5885 5884 5883 5882 5882 5881
5882 5883 5883 5883 5884 5884 5885 5885 5886 5886 5887 5888 5889 5889 5890 5890 5891 5891 5892 5893 5893 5893 5893 5893 5893 5892 5891 5891 5890 5890 5890 5889 5888 5887 5886 5885 5884 5883 5882 5881 5880 5879 5878
5879 5880 5880 5881 5881 5881 5882 5883 5883 5884 5884 5885 5886 5887 5887 5888 5888 5889 5890 5890 5891 5891 5891 5891 5890 5890 5889 5889 5888 5888 5887 5886 5886 5885 5883 5882 5881 5880 5879 5878 5877 5876 5876
5876 5876 5877 5877 5878 5879 5879 5880 5881 5881 5882 5882 5883 5884 5884 5885 5885 5886 5887 5888 5888 5888 5888 5888 5888 5887 5887 5886 5886 5885 5884 5883 5882 5881 5880 5879 5878 5877 5876 5875 5874 5873 5872
5872 5872 5873 5874 5875 5876 5876 5877 5878 5879 5879 5880 5880 5881 5881 5882 5883 5883 5884 5884 5885 5885 5885 5885 5885 5884 5884 5883 5882 5881 5881 5880 5878 5878 5877 5876 5875 5874 5872 5871 5870 5869 5868
5867 5868 5869 5870 5870 5872 5873 5874 5875 5875 5876 5877 5877 5878 5879 5879 5880 5880 5881 5881 5881 5882 5882 5882 5881 5881 5880 5879 5878 5877 5876 5875 5874 5873 5872 5871 5870 5869 5868 5866 5865 5864 5863
5865 5865 5866 5866 5867 5869 5870 5871 5871 5872 5872 5873 5874 5875 5875 5876 5876 5877 5877 5878 5878 5878 5878 5878 5877 5877 5876 5875 5874 5873 5871 5870 5869 5868 5866 5865 5864 5863 5862 5861 5860 5859 5858
5860 5862 5862 5862 5863 5865 5866 5867 5867 5867 5868 5869 5870 5871 5872 5872 5873 5873 5874 5874 5874 5874 5874 5874 5873 5872 5871 5870 5868 5867 5866 5865 5863 5862 5861 5859 5858 5857 5856 5855 5854 5853 5852
5855 5857 5857 5858 5859 5860 5861 5863 5863 5863 5864 5865 5866 5867 5868 5868 5869 5869 5870 5870 5870 5870 5869 5869 5868 5867 5866 5865 5863 5861 5859 5858 5857 5855 5854 5853 5852 5851 5850 5849 5847 5846 5845
5849 5850 5851 5852 5854 5854 5856 5857 5858 5858 5858 5859 5861 5862 5863 5863 5864 5864 5865 5865 5865 5864 5864 5863 5863 5861 5860 5859 5857 5855 5853 5851 5850 5848 5847 5846 5845 5844 5843 5841 5840 5839 5837
5843 5843 5844 5845 5847 5848 5849 5850 5851 5852 5853 5854 5855 5856 5857 5857 5858 5859 5859 5859 5859 5859 5858 5857 5856 5855 5854 5852 5850 5849 5847 5845 5843 5842 5840 5839 5838 5836 5836 5834 5833 5831 5830
5837 5838 5838 5838 5838 5840 5843 5844 5845 5847 5848 5848 5849 5849 5850 5851 5851 5852 5853 5853 5853 5853 5852 5851 5850 5849 5847 5845 5844 5842 5840 5838 5837 5835 5833 5832 5831 5829 5828 5827 5825 5823 5821
5831 5830 5831 5830 5832 5834 5837 5838 5839 5840 5842 5843 5843 5844 5844 5845 5845 5845 5846 5847 5847 5846 5845 5844 5843 5842 5841 5839 5837 5835 5834 5833 5830 5828 5826 5825 5823 5822 5820 5818 5817 5815 5812
5828 5827 5825 5825 5827 5828 5829 5831 5832 5833 5835 5836 5837 5838 5839 5839 5839 5839 5840 5840 5840 5839 5839 5838 5837 5836 5834 5832 5830 5829 5827 5825 5823 5821 5819 5817 5815 5813 5811 5809 5807 5805 5803
5822 5822 5821 5820 5822 5823 5825 5827 5827 5827 5828 5829 5830 5831 5832 5832 5833 5833 5833 5833 5833 5832 5832 5831 5830 5829 5827 5825 5824 5822 5820 5818 5816 5814 5812 5809 5806 5804 5802 5800 5797 5795 5792
5816 5817 5818 5817 5817 5818 5819 5820 5820 5821 5822 5823 5823 5825 5826 5827 5827 5827 5827 5826 5826 5826 5825 5824 5823 5821 5820 5818 5816 5814 5812 5810 5807 5805 5803 5800 5797 5795 5792 5790 5787 5784 5781
5809 5811 5812 5812 5812 5813 5814 5814 5814 5815 5816 5817 5817 5818 5819 5820 5820 5820 5820 5820 5819 5818 5818 5816 5815 5813 5811 5809 5807 5805 5802 5800 5798 5795 5793 5790 5787 5784 5781 5779 5775 5772 5768